| time (UTC) | temp F | wind direction | speed MPH | gust MPH | rain 1hr in | rain 24hr in | rain mn in | humidity % | barometer mb |
| 20260904215916 | 99 | 196 | 1.0 | 12.0 | 0.00 | 0.00 | 0.00 | 41 | 1005.9 |
| 20260904215414 | 99 | 152 | 1.0 | 12.0 | 0.00 | 0.00 | 0.00 | 41 | 1005.9 |
| 20260904214912 | 99 | 162 | 1.0 | 10.0 | 0.00 | 0.00 | 0.00 | 41 | 1005.9 |
| 20260904214411 | 99 | 178 | 1.0 | 10.0 | 0.00 | 0.00 | 0.00 | 41 | 1006.0 |
| 20260904213912 | 99 | 132 | 0.0 | 9.0 | 0.00 | 0.00 | 0.00 | 41 | 1006.0 |
| 20260904213631 | 98 | 142 | 1.0 | 9.0 | 0.00 | 0.00 | 0.00 | 41 | 1006.0 |
| 20260904212912 | 98 | 155 | 0.0 | 6.0 | 0.00 | 0.00 | 0.00 | 41 | 1006.1 |
| 20260904212412 | 98 | 194 | 1.0 | 15.0 | 0.00 | 0.00 | 0.00 | 41 | 1006.2 |
| 20260904211912 | 98 | 167 | 1.0 | 15.0 | 0.00 | 0.00 | 0.00 | 41 | 1006.2 |
| 20260904211412 | 98 | 136 | 0.0 | 8.0 | 0.00 | 0.00 | 0.00 | 41 | 1006.2 |
| 20260904210910 | 98 | 115 | 0.0 | 7.0 | 0.00 | 0.00 | 0.00 | 42 | 1006.2 |
| 20260904210637 | 98 | 149 | 1.0 | 7.0 | 0.00 | 0.00 | 0.00 | 42 | 1006.3 |
| 20260904205910 | 98 | 189 | 0.0 | 7.0 | 0.00 | 0.00 | 0.00 | 41 | 1006.4 |
| 20260904205410 | 98 | 153 | 1.0 | 7.0 | 0.00 | 0.00 | 0.00 | 41 | 1006.4 |
| 20260904204910 | 98 | 121 | 0.0 | 6.0 | 0.00 | 0.00 | 0.00 | 42 | 1006.5 |
| 20260904204410 | 98 | 183 | 0.0 | 5.0 | 0.00 | 0.00 | 0.00 | 41 | 1006.6 |
| 20260904203907 | 98 | 177 | 1.0 | 8.0 | 0.00 | 0.00 | 0.00 | 42 | 1006.6 |
| 20260904203406 | 98 | 175 | 0.0 | 8.0 | 0.00 | 0.00 | 0.00 | 42 | 1006.5 |
| 20260904202906 | 97 | 123 | 1.0 | 12.0 | 0.00 | 0.00 | 0.00 | 43 | 1006.6 |
| 20260904202406 | 97 | 170 | 2.0 | 12.0 | 0.00 | 0.00 | 0.00 | 43 | 1006.7 |
| 20260904202123 | 97 | 188 | 1.0 | 10.0 | 0.00 | 0.00 | 0.00 | 43 | 1006.7 |
| 20260904201405 | 97 | 158 | 1.0 | 9.0 | 0.00 | 0.00 | 0.00 | 43 | 1006.9 |
| 20260904200906 | 97 | 166 | 1.0 | 9.0 | 0.00 | 0.00 | 0.00 | 43 | 1006.9 |
| 20260904200406 | 97 | 181 | 1.0 | 10.0 | 0.00 | 0.00 | 0.00 | 43 | 1006.9 |
| 20260904195906 | 97 | 165 | 2.0 | 14.0 | 0.00 | 0.00 | 0.00 | 43 | 1007.0 |
| 20260904195406 | 97 | 149 | 2.0 | 14.0 | 0.00 | 0.00 | 0.00 | 43 | 1007.2 |
| 20260904195126 | 97 | 192 | 2.0 | 13.0 | 0.00 | 0.00 | 0.00 | 43 | 1007.2 |
| 20260904194628 | 97 | 198 | 2.0 | 13.0 | 0.00 | 0.00 | 0.00 | 42 | 1007.2 |
| 20260904193906 | 97 | 253 | 1.0 | 11.0 | 0.00 | 0.00 | 0.00 | 43 | 1007.2 |
| 20260904193856 | 97 | 174 | 1.0 | 11.0 | 0.00 | 0.00 | 0.00 | 44 | 1007.2 |
| 20260904192907 | 97 | 142 | 1.0 | 8.0 | 0.00 | 0.00 | 0.00 | 44 | 1007.3 |
| 20260904192402 | 97 | 177 | 1.0 | 12.0 | 0.00 | 0.00 | 0.00 | 42 | 1007.3 |
| 20260904191902 | 97 | 161 | 0.0 | 12.0 | 0.00 | 0.00 | 0.00 | 43 | 1007.3 |
| 20260904191402 | 97 | 169 | 0.0 | 9.0 | 0.00 | 0.00 | 0.00 | 44 | 1007.4 |
| 20260904190901 | 96 | 171 | 2.0 | 13.0 | 0.00 | 0.00 | 0.00 | 44 | 1007.4 |
| 20260904190402 | 96 | 163 | 2.0 | 13.0 | 0.00 | 0.00 | 0.00 | 44 | 1007.5 |
| 20260904185902 | 97 | 159 | 1.0 | 9.0 | 0.00 | 0.00 | 0.00 | 44 | 1007.5 |
| 20260904185627 | 97 | 165 | 0.0 | 9.0 | 0.00 | 0.00 | 0.00 | 44 | 1007.6 |
| 20260904185348 | 96 | 167 | 1.0 | 9.0 | 0.00 | 0.00 | 0.00 | 44 | 1007.7 |
| 20260904184627 | 96 | 161 | 1.0 | 9.0 | 0.00 | 0.00 | 0.00 | 44 | 1007.7 |
| 20260904184124 | 96 | 174 | 1.0 | 9.0 | 0.00 | 0.00 | 0.00 | 44 | 1007.8 |
| 20260904183402 | 96 | 177 | 1.0 | 9.0 | 0.00 | 0.00 | 0.00 | 45 | 1007.9 |
| 20260904182902 | 96 | 192 | 1.0 | 9.0 | 0.00 | 0.00 | 0.00 | 45 | 1007.9 |
| 20260904182402 | 96 | 202 | 1.0 | 9.0 | 0.00 | 0.00 | 0.00 | 45 | 1008.0 |
| 20260904182124 | 95 | 175 | 1.0 | 12.0 | 0.00 | 0.00 | 0.00 | 46 | 1008.0 |
| 20260904181402 | 95 | 174 | 1.0 | 12.0 | 0.00 | 0.00 | 0.00 | 45 | 1008.1 |
| 20260904180902 | 95 | 194 | 1.0 | 11.0 | 0.00 | 0.00 | 0.00 | 45 | 1008.2 |
| 20260904180402 | 95 | 186 | 1.0 | 11.0 | 0.00 | 0.00 | 0.00 | 47 | 1008.1 |
| 20260904180133 | 94 | 188 | 3.0 | 11.0 | 0.00 | 0.00 | 0.00 | 46 | 1008.2 |
| 20260904175401 | 94 | 181 | 3.0 | 11.0 | 0.00 | 0.00 | 0.00 | 46 | 1008.2 |
| 20260904174902 | 94 | 157 | 1.0 | 11.0 | 0.00 | 0.00 | 0.00 | 46 | 1008.3 |
| 20260904174624 | 94 | 131 | 1.0 | 11.0 | 0.00 | 0.00 | 0.00 | 47 | 1008.4 |
| 20260904173923 | 94 | 140 | 1.0 | 7.0 | 0.00 | 0.00 | 0.00 | 46 | 1008.5 |
| 20260904173915 | 94 | 162 | 2.0 | 11.0 | 0.00 | 0.00 | 0.00 | 46 | 1008.5 |
| 20260904173130 | 94 | 115 | 0.0 | 9.0 | 0.00 | 0.00 | 0.00 | 46 | 1008.5 |
| 20260904172401 | 94 | 186 | 0.0 | 9.0 | 0.00 | 0.00 | 0.00 | 48 | 1008.5 |
| 20260904171902 | 94 | 237 | 2.0 | 15.0 | 0.00 | 0.00 | 0.00 | 47 | 1008.7 |
| 20260904171402 | 93 | 179 | 3.0 | 15.0 | 0.00 | 0.00 | 0.00 | 47 | 1008.8 |
| 20260904170901 | 93 | 176 | 2.0 | 12.0 | 0.00 | 0.00 | 0.00 | 48 | 1008.7 |
| 20260904170355 | 93 | 157 | 2.0 | 16.0 | 0.00 | 0.00 | 0.00 | 48 | 1008.8 |
| 20260904170331 | 93 | 162 | 1.0 | 16.0 | 0.00 | 0.00 | 0.00 | 48 | 1008.8 |
| 20260904165349 | 92 | 196 | 1.0 | 10.0 | 0.00 | 0.00 | 0.00 | 48 | 1008.9 |
| 20260904164848 | 92 | 144 | 1.0 | 12.0 | 0.00 | 0.00 | 0.00 | 50 | 1008.9 |
| 20260904164345 | 92 | 153 | 1.0 | 12.0 | 0.00 | 0.00 | 0.00 | 49 | 1009.0 |
| 20260904163844 | 92 | 184 | 0.0 | 8.0 | 0.00 | 0.00 | 0.00 | 50 | 1009.0 |
| 20260904163607 | 92 | 191 | 1.0 | 12.0 | 0.00 | 0.00 | 0.00 | 49 | 1009.0 |
| 20260904163325 | 91 | 207 | 2.0 | 12.0 | 0.00 | 0.00 | 0.00 | 49 | 1009.1 |
| 20260904162559 | 91 | 169 | 1.0 | 10.0 | 0.00 | 0.00 | 0.00 | 50 | 1009.0 |
| 20260904161838 | 91 | 140 | 1.0 | 12.0 | 0.00 | 0.00 | 0.00 | 50 | 1009.1 |
| 20260904161335 | 91 | 171 | 2.0 | 12.0 | 0.00 | 0.00 | 0.00 | 51 | 1009.0 |
| 20260904161331 | 90 | 150 | 1.0 | 11.0 | 0.00 | 0.00 | 0.00 | 51 | 1009.1 |
| 20260904160334 | 90 | 184 | 0.0 | 5.0 | 0.00 | 0.00 | 0.00 | 52 | 1009.1 |
| 20260904155834 | 90 | 163 | 0.0 | 7.0 | 0.00 | 0.00 | 0.00 | 52 | 1009.1 |
| 20260904155331 | 90 | 185 | 1.0 | 7.0 | 0.00 | 0.00 | 0.00 | 53 | 1009.0 |
| 20260904154832 | 89 | 190 | 0.0 | 6.0 | 0.00 | 0.00 | 0.00 | 53 | 1009.1 |
| 20260904154330 | 89 | 144 | 0.0 | 8.0 | 0.00 | 0.00 | 0.00 | 54 | 1009.1 |
| 20260904153829 | 89 | 144 | 0.0 | 8.0 | 0.00 | 0.00 | 0.00 | 55 | 1009.1 |
| 20260904153555 | 88 | 194 | 1.0 | 9.0 | 0.00 | 0.00 | 0.00 | 55 | 1009.1 |
| 20260904152830 | 88 | 155 | 1.0 | 10.0 | 0.00 | 0.00 | 0.00 | 57 | 1009.1 |
| 20260904152329 | 87 | 187 | 1.0 | 10.0 | 0.00 | 0.00 | 0.00 | 57 | 1009.2 |
| 20260904151825 | 87 | 164 | 0.0 | 10.0 | 0.00 | 0.00 | 0.00 | 59 | 1009.1 |
| 20260904151319 | 86 | 178 | 0.0 | 6.0 | 0.00 | 0.00 | 0.00 | 60 | 1009.1 |
| 20260904150813 | 86 | 167 | 1.0 | 11.0 | 0.00 | 0.00 | 0.00 | 60 | 1009.2 |
| 20260904150307 | 85 | 188 | 1.0 | 11.0 | 0.00 | 0.00 | 0.00 | 62 | 1009.1 |
| 20260904145807 | 85 | 165 | 0.0 | 7.0 | 0.00 | 0.00 | 0.00 | 63 | 1009.2 |
| 20260904145308 | 85 | 181 | 0.0 | 7.0 | 0.00 | 0.00 | 0.00 | 64 | 1009.2 |
| 20260904144808 | 84 | 163 | 1.0 | 11.0 | 0.00 | 0.00 | 0.00 | 64 | 1009.2 |
| 20260904144530 | 84 | 195 | 1.0 | 11.0 | 0.00 | 0.00 | 0.00 | 64 | 1009.2 |
| 20260904143808 | 84 | 165 | 0.0 | 5.0 | 0.00 | 0.00 | 0.00 | 66 | 1009.1 |
| 20260904143306 | 83 | 169 | 0.0 | 4.0 | 0.00 | 0.00 | 0.00 | 66 | 1009.2 |
| 20260904143024 | 83 | 173 | 0.0 | 2.0 | 0.00 | 0.00 | 0.00 | 67 | 1009.2 |
| 20260904142305 | 83 | 193 | 0.0 | 8.0 | 0.00 | 0.00 | 0.00 | 69 | 1009.3 |
| 20260904141801 | 82 | 196 | 0.0 | 8.0 | 0.00 | 0.00 | 0.00 | 69 | 1009.3 |
| 20260904141301 | 82 | 182 | 0.0 | 6.0 | 0.00 | 0.00 | 0.00 | 70 | 1009.3 |
| 20260904140801 | 82 | 194 | 0.0 | 2.0 | 0.00 | 0.00 | 0.00 | 70 | 1009.2 |
| 20260904140301 | 81 | 168 | 0.0 | 2.0 | 0.00 | 0.00 | 0.00 | 71 | 1009.2 |
| 20260904140024 | 81 | 163 | 0.0 | 2.0 | 0.00 | 0.00 | 0.00 | 72 | 1009.2 |
| 20260904135754 | 80 | 184 | 0.0 | 1.0 | 0.00 | 0.00 | 0.00 | 73 | 1009.2 |
| 20260904134801 | 80 | 172 | 0.0 | 1.0 | 0.00 | 0.00 | 0.00 | 74 | 1009.3 |
| 20260904134302 | 80 | 169 | 0.0 | 1.0 | 0.00 | 0.00 | 0.00 | 75 | 1009.3 |
| 20260904133802 | 79 | 165 | 0.0 | 0.0 | 0.00 | 0.00 | 0.00 | 76 | 1009.3 |
| 20260904133307 | 79 | 165 | 0.0 | 0.0 | 0.00 | 0.00 | 0.00 | 77 | 1009.3 |
| 20260904133027 | 78 | 166 | 0.0 | 0.0 | 0.00 | 0.00 | 0.00 | 78 | 1009.3 |
| 20260904132301 | 78 | 166 | 0.0 | 0.0 | 0.00 | 0.00 | 0.00 | 78 | 1009.3 |
| 20260904131801 | 78 | 169 | 0.0 | 1.0 | 0.00 | 0.00 | 0.00 | 78 | 1009.1 |
| 20260904131301 | 77 | 169 | 0.0 | 1.0 | 0.00 | 0.00 | 0.00 | 79 | 1009.1 |
| 20260904131025 | 77 | 171 | 0.0 | 0.0 | 0.00 | 0.00 | 0.00 | 80 | 1009.0 |
| 20260904130523 | 76 | 172 | 0.0 | 0.0 | 0.00 | 0.00 | 0.00 | 80 | 1009.0 |
| 20260904125801 | 76 | 172 | 0.0 | 0.0 | 0.00 | 0.00 | 0.00 | 81 | 1009.0 |
| 20260904125301 | 76 | 171 | 0.0 | 0.0 | 0.00 | 0.00 | 0.00 | 82 | 1009.0 |
| 20260904125022 | 75 | 170 | 0.0 | 0.0 | 0.00 | 0.00 | 0.00 | 82 | 1009.0 |
| 20260904124523 | 75 | 171 | 0.0 | 0.0 | 0.00 | 0.00 | 0.00 | 83 | 1009.0 |
| 20260904124249 | 75 | 171 | 0.0 | 0.0 | 0.00 | 0.00 | 0.00 | 83 | 1009.0 |
| 20260904123301 | 75 | 171 | 0.0 | 0.0 | 0.00 | 0.00 | 0.00 | 83 | 1009.0 |
| 20260904122802 | 75 | 171 | 0.0 | 0.0 | 0.00 | 0.00 | 0.00 | 82 | 1008.8 |
| 20260904122302 | 75 | 171 | 0.0 | 0.0 | 0.00 | 0.00 | 0.00 | 82 | 1008.8 |
| 20260904121801 | 75 | 171 | 0.0 | 0.0 | 0.00 | 0.00 | 0.00 | 82 | 1008.8 |
| 20260904121301 | 75 | 171 | 0.0 | 0.0 | 0.00 | 0.00 | 0.00 | 81 | 1008.8 |
| 20260904120801 | 75 | 171 | 0.0 | 0.0 | 0.00 | 0.00 | 0.00 | 81 | 1008.9 |
| 20260904120301 | 75 | 171 | 0.0 | 0.0 | 0.00 | 0.00 | 0.00 | 81 | 1008.9 |
| 20260904120017 | 75 | 171 | 0.0 | 0.0 | 0.00 | 0.00 | 0.00 | 81 | 1008.8 |
| 20260904115300 | 75 | 171 | 0.0 | 0.0 | 0.00 | 0.00 | 0.00 | 81 | 1008.8 |
| 20260904114801 | 76 | 171 | 0.0 | 0.0 | 0.00 | 0.00 | 0.00 | 80 | 1008.7 |
| 20260904114302 | 76 | 171 | 0.0 | 0.0 | 0.00 | 0.00 | 0.00 | 80 | 1008.7 |
| 20260904113800 | 76 | 171 | 0.0 | 0.0 | 0.00 | 0.00 | 0.00 | 80 | 1008.6 |
| 20260904113302 | 76 | 171 | 0.0 | 0.0 | 0.00 | 0.00 | 0.00 | 80 | 1008.5 |
| 20260904112801 | 76 | 171 | 0.0 | 2.0 | 0.00 | 0.00 | 0.00 | 80 | 1008.4 |
| 20260904112305 | 76 | 171 | 0.0 | 2.0 | 0.00 | 0.00 | 0.00 | 79 | 1008.4 |
| 20260904111800 | 76 | 171 | 0.0 | 1.0 | 0.00 | 0.00 | 0.00 | 79 | 1008.3 |
| 20260904111524 | 76 | 171 | 0.0 | 1.0 | 0.00 | 0.00 | 0.00 | 79 | 1008.4 |
| 20260904111019 | 76 | 171 | 0.0 | 0.0 | 0.00 | 0.00 | 0.00 | 79 | 1008.3 |
| 20260904110301 | 76 | 171 | 0.0 | 0.0 | 0.00 | 0.00 | 0.00 | 79 | 1008.3 |
| 20260904105801 | 76 | 171 | 0.0 | 0.0 | 0.00 | 0.00 | 0.00 | 79 | 1008.3 |
| 20260904105301 | 76 | 171 | 0.0 | 0.0 | 0.00 | 0.00 | 0.00 | 79 | 1008.4 |
| 20260904104801 | 76 | 171 | 0.0 | 0.0 | 0.00 | 0.00 | 0.00 | 79 | 1008.3 |
| 20260904104301 | 76 | 171 | 0.0 | 0.0 | 0.00 | 0.00 | 0.00 | 79 | 1008.3 |
| 20260904103755 | 76 | 171 | 0.0 | 0.0 | 0.00 | 0.00 | 0.00 | 78 | 1008.3 |
| 20260904103249 | 76 | 171 | 0.0 | 0.0 | 0.00 | 0.00 | 0.00 | 78 | 1008.4 |
| 20260904102749 | 76 | 171 | 0.0 | 0.0 | 0.00 | 0.00 | 0.00 | 78 | 1008.3 |
| 20260904102509 | 76 | 171 | 0.0 | 0.0 | 0.00 | 0.00 | 0.00 | 78 | 1008.3 |
| 20260904102003 | 76 | 171 | 0.0 | 0.0 | 0.00 | 0.00 | 0.00 | 77 | 1008.2 |
| 20260904101247 | 77 | 171 | 0.0 | 0.0 | 0.00 | 0.00 | 0.00 | 77 | 1008.2 |
| 20260904100745 | 77 | 171 | 0.0 | 0.0 | 0.00 | 0.00 | 0.00 | 77 | 1008.1 |
| 20260904100243 | 77 | 171 | 0.0 | 0.0 | 0.00 | 0.00 | 0.00 | 77 | 1008.2 |
| 20260904095741 | 77 | 171 | 0.0 | 0.0 | 0.00 | 0.00 | 0.00 | 76 | 1008.2 |
| 20260904095240 | 77 | 171 | 0.0 | 0.0 | 0.00 | 0.00 | 0.00 | 76 | 1008.2 |
| 20260904094742 | 77 | 171 | 0.0 | 2.0 | 0.00 | 0.00 | 0.00 | 76 | 1008.1 |
| 20260904094238 | 77 | 171 | 0.0 | 2.0 | 0.00 | 0.00 | 0.00 | 76 | 1008.0 |
| 20260904093737 | 77 | 171 | 0.0 | 0.0 | 0.00 | 0.00 | 0.00 | 76 | 1007.9 |
| 20260904093235 | 77 | 171 | 0.0 | 0.0 | 0.00 | 0.00 | 0.00 | 76 | 1007.9 |
| 20260904092733 | 77 | 171 | 0.0 | 0.0 | 0.00 | 0.00 | 0.00 | 76 | 1007.8 |
| 20260904092453 | 77 | 170 | 0.0 | 0.0 | 0.00 | 0.00 | 0.00 | 76 | 1007.8 |
| 20260904092210 | 77 | 171 | 0.0 | 0.0 | 0.00 | 0.00 | 0.00 | 75 | 1007.7 |
| 20260904091229 | 78 | 171 | 0.0 | 0.0 | 0.00 | 0.00 | 0.00 | 75 | 1007.7 |
| 20260904090729 | 77 | 171 | 0.0 | 0.0 | 0.00 | 0.00 | 0.00 | 75 | 1007.7 |
| 20260904090230 | 78 | 171 | 0.0 | 1.0 | 0.00 | 0.00 | 0.00 | 75 | 1007.7 |
| 20260904085729 | 78 | 180 | 0.0 | 1.0 | 0.00 | 0.00 | 0.00 | 75 | 1007.6 |
| 20260904085229 | 78 | 180 | 0.0 | 0.0 | 0.00 | 0.00 | 0.00 | 75 | 1007.6 |
| 20260904085219 | 78 | 180 | 0.0 | 2.0 | 0.00 | 0.00 | 0.00 | 75 | 1007.5 |
| 20260904084229 | 78 | 180 | 0.0 | 2.0 | 0.00 | 0.00 | 0.00 | 75 | 1007.6 |
| 20260904083729 | 78 | 180 | 0.0 | 0.0 | 0.00 | 0.00 | 0.00 | 75 | 1007.5 |
| 20260904083229 | 78 | 180 | 0.0 | 0.0 | 0.00 | 0.00 | 0.00 | 74 | 1007.5 |
| 20260904082729 | 78 | 180 | 0.0 | 1.0 | 0.00 | 0.00 | 0.00 | 74 | 1007.4 |
| 20260904082229 | 78 | 180 | 0.0 | 1.0 | 0.00 | 0.00 | 0.00 | 74 | 1007.4 |
| 20260904081729 | 78 | 180 | 0.0 | 4.0 | 0.00 | 0.00 | 0.00 | 74 | 1007.4 |
| 20260904081229 | 78 | 180 | 0.0 | 4.0 | 0.00 | 0.00 | 0.00 | 74 | 1007.4 |
| 20260904080729 | 78 | 180 | 0.0 | 0.0 | 0.00 | 0.00 | 0.00 | 74 | 1007.3 |
| 20260904080229 | 78 | 180 | 0.0 | 0.0 | 0.00 | 0.00 | 0.00 | 74 | 1007.4 |
| 20260904075729 | 78 | 180 | 0.0 | 0.0 | 0.00 | 0.00 | 0.00 | 74 | 1007.4 |
| 20260904075229 | 78 | 180 | 0.0 | 0.0 | 0.00 | 0.00 | 0.00 | 74 | 1007.4 |
| 20260904074729 | 78 | 180 | 0.0 | 0.0 | 0.00 | 0.00 | 0.00 | 74 | 1007.4 |
| 20260904074229 | 78 | 180 | 0.0 | 0.0 | 0.00 | 0.00 | 0.00 | 73 | 1007.3 |
| 20260904073729 | 78 | 180 | 0.0 | 0.0 | 0.00 | 0.00 | 0.00 | 73 | 1007.3 |
| 20260904073229 | 79 | 180 | 0.0 | 0.0 | 0.00 | 0.00 | 0.00 | 73 | 1007.3 |
| 20260904072729 | 79 | 180 | 0.0 | 0.0 | 0.00 | 0.00 | 0.00 | 73 | 1007.3 |
| 20260904072229 | 79 | 180 | 0.0 | 0.0 | 0.00 | 0.00 | 0.00 | 73 | 1007.3 |
| 20260904071729 | 79 | 180 | 0.0 | 0.0 | 0.00 | 0.00 | 0.00 | 72 | 1007.4 |
| 20260904071229 | 79 | 180 | 0.0 | 0.0 | 0.00 | 0.00 | 0.00 | 72 | 1007.4 |
| 20260904070726 | 79 | 180 | 0.0 | 0.0 | 0.00 | 0.00 | 0.00 | 72 | 1007.5 |
| 20260904070227 | 79 | 180 | 0.0 | 0.0 | 0.00 | 0.00 | 0.00 | 72 | 1007.5 |
| 20260904065727 | 79 | 180 | 0.0 | 0.0 | 0.00 | 0.00 | 0.00 | 72 | 1007.5 |
| 20260904065227 | 79 | 180 | 0.0 | 0.0 | 0.00 | 0.00 | 0.00 | 72 | 1007.5 |
| 20260904064727 | 79 | 180 | 0.0 | 1.0 | 0.00 | 0.00 | 0.00 | 71 | 1007.5 |
| 20260904064452 | 79 | 180 | 0.0 | 2.0 | 0.00 | 0.00 | 0.00 | 71 | 1007.6 |
| 20260904063730 | 80 | 180 | 0.0 | 2.0 | 0.00 | 0.00 | 0.00 | 71 | 1007.6 |
| 20260904063228 | 80 | 180 | 0.0 | 1.0 | 0.00 | 0.00 | 0.00 | 71 | 1007.6 |
| 20260904062949 | 80 | 180 | 0.0 | 1.0 | 0.00 | 0.00 | 0.00 | 70 | 1007.6 |
| 20260904062223 | 80 | 180 | 0.0 | 1.0 | 0.00 | 0.00 | 0.00 | 70 | 1007.6 |
| 20260904061723 | 80 | 180 | 0.0 | 1.0 | 0.00 | 0.00 | 0.00 | 70 | 1007.6 |
| 20260904061439 | 80 | 180 | 0.0 | 1.0 | 0.00 | 0.00 | 0.00 | 70 | 1007.7 |
| 20260904060722 | 80 | 180 | 0.0 | 0.0 | 0.00 | 0.00 | 0.00 | 69 | 1007.7 |
| 20260904060223 | 80 | 180 | 0.0 | 0.0 | 0.00 | 0.00 | 0.00 | 69 | 1007.6 |
| 20260904055942 | 80 | 180 | 0.0 | 0.0 | 0.00 | 0.00 | 0.00 | 69 | 1007.6 |
| 20260904055223 | 81 | 180 | 0.0 | 0.0 | 0.00 | 0.00 | 0.00 | 68 | 1007.5 |
| 20260904054723 | 81 | 180 | 0.0 | 0.0 | 0.00 | 0.00 | 0.00 | 68 | 1007.5 |
| 20260904054224 | 81 | 180 | 0.0 | 0.0 | 0.00 | 0.00 | 0.00 | 67 | 1007.5 |
| 20260904053716 | 81 | 180 | 0.0 | 0.0 | 0.00 | 0.00 | 0.00 | 67 | 1007.4 |
| 20260904053210 | 81 | 180 | 0.0 | 0.0 | 0.00 | 0.00 | 0.00 | 67 | 1007.3 |
| 20260904052930 | 81 | 180 | 0.0 | 0.0 | 0.00 | 0.00 | 0.00 | 66 | 1007.3 |
| 20260904052422 | 82 | 180 | 0.0 | 0.0 | 0.00 | 0.00 | 0.00 | 66 | 1007.3 |
| 20260904051921 | 82 | 180 | 0.0 | 0.0 | 0.00 | 0.00 | 0.00 | 66 | 1007.3 |
| 20260904051202 | 82 | 180 | 0.0 | 0.0 | 0.00 | 0.00 | 0.00 | 65 | 1007.3 |
| 20260904050702 | 82 | 180 | 0.0 | 0.0 | 0.00 | 0.00 | 0.00 | 65 | 1007.3 |
| 20260904050203 | 82 | 180 | 0.0 | 0.0 | 0.00 | 0.00 | 0.00 | 65 | 1007.2 |
| 20260904045703 | 83 | 180 | 0.0 | 0.0 | 0.00 | 0.00 | 0.00 | 64 | 1007.2 |
| 20260904045203 | 83 | 180 | 0.0 | 0.0 | 0.00 | 0.00 | 0.00 | 64 | 1007.2 |
| 20260904044702 | 83 | 180 | 0.0 | 0.0 | 0.00 | 0.00 | 0.00 | 63 | 1007.2 |
| 20260904044202 | 83 | 180 | 0.0 | 0.0 | 0.00 | 0.00 | 0.00 | 63 | 1007.0 |
| 20260904043701 | 83 | 180 | 0.0 | 0.0 | 0.00 | 0.00 | 0.00 | 63 | 1007.0 |
| 20260904043200 | 83 | 180 | 0.0 | 0.0 | 0.00 | 0.00 | 0.00 | 63 | 1007.2 |
| 20260904042702 | 83 | 180 | 0.0 | 0.0 | 0.00 | 0.00 | 0.00 | 62 | 1007.2 |
| 20260904042200 | 84 | 180 | 0.0 | 0.0 | 0.00 | 0.00 | 0.00 | 62 | 1007.2 |
| 20260904041702 | 84 | 180 | 0.0 | 0.0 | 0.00 | 0.00 | 0.00 | 62 | 1007.2 |
| 20260904041201 | 84 | 180 | 0.0 | 0.0 | 0.00 | 0.00 | 0.00 | 61 | 1007.2 |
| 20260904040701 | 84 | 180 | 0.0 | 0.0 | 0.00 | 0.00 | 0.00 | 61 | 1007.2 |
| 20260904040201 | 84 | 180 | 0.0 | 0.0 | 0.00 | 0.00 | 0.00 | 61 | 1007.2 |
| 20260904035658 | 84 | 180 | 0.0 | 0.0 | 0.00 | 0.00 | 0.00 | 61 | 1007.2 |
| 20260904035415 | 84 | 180 | 0.0 | 0.0 | 0.00 | 0.00 | 0.00 | 61 | 1007.2 |
| 20260904034646 | 84 | 180 | 0.0 | 0.0 | 0.00 | 0.00 | 0.00 | 60 | 1007.2 |
| 20260904034407 | 84 | 180 | 0.0 | 0.0 | 0.00 | 0.00 | 0.00 | 60 | 1007.2 |
| 20260904033640 | 84 | 180 | 0.0 | 0.0 | 0.00 | 0.00 | 0.00 | 60 | 1007.2 |
| 20260904033138 | 85 | 180 | 0.0 | 0.0 | 0.00 | 0.00 | 0.00 | 60 | 1007.2 |
| 20260904032636 | 85 | 180 | 0.0 | 0.0 | 0.00 | 0.00 | 0.00 | 60 | 1007.2 |
| 20260904032135 | 85 | 180 | 0.0 | 0.0 | 0.00 | 0.00 | 0.00 | 59 | 1007.2 |
| 20260904031633 | 85 | 180 | 0.0 | 0.0 | 0.00 | 0.00 | 0.00 | 59 | 1006.9 |
| 20260904031129 | 86 | 180 | 0.0 | 0.0 | 0.00 | 0.00 | 0.00 | 58 | 1006.9 |
| 20260904030851 | 86 | 180 | 0.0 | 0.0 | 0.00 | 0.00 | 0.00 | 58 | 1006.9 |
| 20260904030130 | 86 | 180 | 0.0 | 0.0 | 0.00 | 0.00 | 0.00 | 57 | 1006.8 |
| 20260904025629 | 86 | 180 | 0.0 | 0.0 | 0.00 | 0.00 | 0.00 | 57 | 1006.8 |
| 20260904025129 | 86 | 180 | 0.0 | 0.0 | 0.00 | 0.00 | 0.00 | 57 | 1006.7 |
| 20260904024847 | 87 | 180 | 0.0 | 0.0 | 0.00 | 0.00 | 0.00 | 56 | 1006.7 |
| 20260904024130 | 87 | 180 | 0.0 | 0.0 | 0.00 | 0.00 | 0.00 | 56 | 1006.5 |
| 20260904023629 | 87 | 180 | 0.0 | 0.0 | 0.00 | 0.00 | 0.00 | 56 | 1006.5 |
| 20260904023130 | 87 | 180 | 0.0 | 0.0 | 0.00 | 0.00 | 0.00 | 55 | 1006.4 |
| 20260904022846 | 87 | 180 | 0.0 | 0.0 | 0.00 | 0.00 | 0.00 | 55 | 1006.2 |
| 20260904022129 | 87 | 180 | 0.0 | 0.0 | 0.00 | 0.00 | 0.00 | 55 | 1006.2 |
| 20260904022112 | 88 | 180 | 0.0 | 0.0 | 0.00 | 0.00 | 0.00 | 55 | 1006.1 |
| 20260904021129 | 88 | 180 | 0.0 | 0.0 | 0.00 | 0.00 | 0.00 | 54 | 1006.1 |
| 20260904021113 | 88 | 180 | 0.0 | 0.0 | 0.00 | 0.00 | 0.00 | 54 | 1006.1 |
| 20260904020129 | 88 | 180 | 0.0 | 0.0 | 0.00 | 0.00 | 0.00 | 54 | 1006.1 |
| 20260904015628 | 88 | 180 | 0.0 | 0.0 | 0.00 | 0.00 | 0.00 | 53 | 1006.0 |
| 20260904015129 | 89 | 180 | 0.0 | 0.0 | 0.00 | 0.00 | 0.00 | 53 | 1005.9 |
| 20260904014629 | 89 | 180 | 0.0 | 0.0 | 0.00 | 0.00 | 0.00 | 53 | 1005.9 |
| 20260904014129 | 89 | 180 | 0.0 | 0.0 | 0.00 | 0.00 | 0.00 | 53 | 1005.8 |
| 20260904013629 | 89 | 180 | 0.0 | 0.0 | 0.00 | 0.00 | 0.00 | 52 | 1005.7 |
| 20260904013129 | 89 | 180 | 0.0 | 0.0 | 0.00 | 0.00 | 0.00 | 52 | 1005.7 |
| 20260904012629 | 90 | 180 | 0.0 | 0.0 | 0.00 | 0.00 | 0.00 | 51 | 1005.7 |
| 20260904012129 | 90 | 180 | 0.0 | 0.0 | 0.00 | 0.00 | 0.00 | 51 | 1005.6 |
| 20260904011629 | 90 | 180 | 0.0 | 0.0 | 0.00 | 0.00 | 0.00 | 51 | 1005.6 |
| 20260904011129 | 90 | 180 | 0.0 | 0.0 | 0.00 | 0.00 | 0.00 | 51 | 1005.5 |
| 20260904010629 | 91 | 180 | 0.0 | 0.0 | 0.00 | 0.00 | 0.00 | 50 | 1005.5 |
| 20260904010130 | 91 | 184 | 0.0 | 0.0 | 0.00 | 0.00 | 0.00 | 50 | 1005.5 |
| 20260904005628 | 91 | 184 | 0.0 | 0.0 | 0.00 | 0.00 | 0.00 | 50 | 1005.5 |
| 20260904005130 | 91 | 184 | 0.0 | 0.0 | 0.00 | 0.00 | 0.00 | 50 | 1005.5 |
| 20260904004630 | 92 | 184 | 0.0 | 1.0 | 0.00 | 0.00 | 0.00 | 49 | 1005.4 |
| 20260904004129 | 92 | 184 | 0.0 | 5.0 | 0.00 | 0.00 | 0.00 | 49 | 1005.4 |
| 20260904003629 | 92 | 190 | 0.0 | 5.0 | 0.00 | 0.00 | 0.00 | 49 | 1005.5 |
| 20260904003129 | 92 | 169 | 0.0 | 3.0 | 0.00 | 0.00 | 0.00 | 49 | 1005.4 |
| 20260904002848 | 92 | 144 | 0.0 | 4.0 | 0.00 | 0.00 | 0.00 | 48 | 1005.4 |
| 20260904002345 | 92 | 183 | 0.0 | 7.0 | 0.00 | 0.00 | 0.00 | 48 | 1005.4 |
| 20260904001629 | 93 | 200 | 1.0 | 11.0 | 0.00 | 0.00 | 0.00 | 48 | 1005.4 |
| 20260904001128 | 93 | 159 | 1.0 | 11.0 | 0.00 | 0.00 | 0.00 | 48 | 1005.4 |
| 20260904000626 | 93 | 173 | 1.0 | 9.0 | 0.00 | 0.00 | 0.00 | 48 | 1005.4 |
| 20260904000126 | 93 | 175 | 1.0 | 9.0 | 0.00 | 0.00 | 0.00 | 47 | 1005.3 |
| 20260903235627 | 94 | 152 | 1.0 | 13.0 | 0.00 | 0.00 | 0.00 | 47 | 1005.3 |
| 20260903235126 | 94 | 213 | 1.0 | 13.0 | 0.00 | 0.00 | 0.00 | 47 | 1005.4 |
| 20260903234842 | 94 | 163 | 1.0 | 10.0 | 0.00 | 0.00 | 0.00 | 46 | 1005.3 |
| 20260903234122 | 94 | 164 | 1.0 | 14.0 | 0.00 | 0.00 | 0.00 | 46 | 1005.3 |
| 20260903233622 | 94 | 169 | 1.0 | 14.0 | 0.00 | 0.00 | 0.00 | 46 | 1005.3 |
| 20260903233122 | 94 | 161 | 1.0 | 16.0 | 0.00 | 0.00 | 0.00 | 46 | 1005.3 |
| 20260903232622 | 95 | 155 | 1.0 | 16.0 | 0.00 | 0.00 | 0.00 | 46 | 1005.2 |
| 20260903232122 | 95 | 180 | 1.0 | 13.0 | 0.00 | 0.00 | 0.00 | 46 | 1005.2 |
| 20260903231622 | 95 | 175 | 1.0 | 9.0 | 0.00 | 0.00 | 0.00 | 45 | 1005.2 |
| 20260903231122 | 95 | 161 | 1.0 | 9.0 | 0.00 | 0.00 | 0.00 | 45 | 1005.2 |
| 20260903230620 | 95 | 108 | 1.0 | 12.0 | 0.00 | 0.00 | 0.00 | 43 | 1005.1 |
| 20260903230120 | 95 | 186 | 1.0 | 12.0 | 0.00 | 0.00 | 0.00 | 43 | 1005.1 |
| 20260903225618 | 95 | 176 | 2.0 | 15.0 | 0.00 | 0.00 | 0.00 | 44 | 1005.1 |
| 20260903225118 | 96 | 168 | 4.0 | 15.0 | 0.00 | 0.00 | 0.00 | 44 | 1005.1 |
| 20260903224617 | 96 | 157 | 4.0 | 13.0 | 0.00 | 0.00 | 0.00 | 43 | 1005.1 |
| 20260903224118 | 96 | 138 | 2.0 | 12.0 | 0.00 | 0.00 | 0.00 | 43 | 1005.0 |
| 20260903223618 | 96 | 163 | 2.0 | 16.0 | 0.00 | 0.00 | 0.00 | 43 | 1005.1 |
| 20260903223114 | 96 | 173 | 2.0 | 16.0 | 0.00 | 0.00 | 0.00 | 42 | 1005.1 |
| 20260903222613 | 96 | 182 | 1.0 | 12.0 | 0.00 | 0.00 | 0.00 | 42 | 1005.0 |
| 20260903222334 | 97 | 196 | 1.0 | 12.0 | 0.00 | 0.00 | 0.00 | 42 | 1004.9 |
| 20260903221614 | 97 | 171 | 2.0 | 12.0 | 0.00 | 0.00 | 0.00 | 42 | 1005.0 |
| 20260903221559 | 97 | 173 | 2.0 | 12.0 | 0.00 | 0.00 | 0.00 | 42 | 1005.1 |
| 20260903220614 | 97 | 171 | 2.0 | 18.0 | 0.00 | 0.00 | 0.00 | 42 | 1005.0 |
| 20260903220114 | 97 | 175 | 3.0 | 18.0 | 0.00 | 0.00 | 0.00 | 41 | 1005.0 |